Regional Weather Roundup
Issued by NWS

Home | Current Version | Previous Version | Text Only | Print | Product List | Glossary On
Versions: 1 2 3 4 5 6 7 8 9 10 11 12 13 14 15 16 17 18 19 20 21 22 23 24 25 26 27 28 29 30 31 32 33 34 35 36 37 38 39 40 41 42 43 44 45 46 47 48 49 50
000
ASUS43 KLMK 050910
RWRKY
KENTUCKY REGIONAL WEATHER ROUNDUP
NATIONAL WEATHER SERVICE LOUISVILLE KY
500 AM EDT TUE MAY 05 2015

NOTE "FAIR" INDICATES FEW OR NO CLOUDS BELOW 12,000 FEET
WITH NO SIGNIFICANT WEATHER AND/OR OBSTRUCTIONS TO VISIBILITY.

KYZ001>023-026-027-061>063-070>075-051000-
WESTERN AND SOUTH CENTRAL KENTUCKY

CITY           SKY/WX    TMP DP  RH WIND       PRES   REMARKS
PADUCAH        CLEAR     65  51  60 S5        30.19R
HENDERSON      CLEAR     61  50  67 S6        30.20R
OWENSBORO      CLEAR     61  56  83 CALM      30.22R
HOPKINSVILLE   CLEAR     62  53  71 S1        30.23R
BOWLING GREEN  CLEAR     57  53  86 CALM      30.24R
GLASGOW        CLEAR     55  54  98 CALM      30.25R
$$

KYZ024-025-028>034-038-045-046-053-051000-
NORTH CENTRAL KENTUCKY

CITY           SKY/WX    TMP DP  RH WIND       PRES   REMARKS
LOUISVILLE/SDF PTCLDY    67  56  67 SE6       30.22R
LOUISVILLE/LOU CLEAR     61  56  83 CALM      30.22S
FORT KNOX      MOCLDY    61  54  77 SW3       30.21S
$$

KYZ035>037-039>044-047>052-055>060-089>105-051000-
NORTHEAST KENTUCKY

CITY           SKY/WX    TMP DP  RH WIND       PRES   REMARKS
LEXINGTON      CLEAR     60  53  77 S7        30.25R
COVINGTON      PTCLDY    62  57  83 CALM      30.23R
FRANKFORT      CLEAR     58  53  84 CALM      30.23R
$$

KYZ054-064>069-076>088-106>120-051000-
SOUTHEAST KENTUCKY

CITY           SKY/WX    TMP DP  RH WIND       PRES   REMARKS
JACKSON        PTCLDY    61  50  67 VRB3      30.28R
LONDON         CLEAR     56  51  84 CALM      30.28R
SOMERSET       CLEAR     54  54 100 CALM      30.28S
MIDDLESBORO    CLEAR     50  50  99 CALM      30.32R
MONTICELLO     SUNNY     52  52 100 CALM      30.30R
$$



USA.gov is the U.S. government's official web portal to all federal, state and local government web resources and services.